TimeCST,TemperatureF,Dew PointF,Humidity,Sea Level PressureIn,VisibilityMPH,Wind Direction,Wind SpeedMPH,Gust SpeedMPH,PrecipitationIn,Events,Conditions,WindDirDegrees,DateUTC
12:53 AM,35.1,30.9,85,29.94,10.0,NNE,3.5,-,N/A,,Clear,30,2012-12-19 06:53:00
1:53 AM,34.0,30.0,85,29.97,10.0,North,3.5,-,N/A,,Clear,10,2012-12-19 07:53:00
2:53 AM,33.1,28.9,85,29.96,9.0,Calm,Calm,-,N/A,,Clear,0,2012-12-19 08:53:00
3:53 AM,30.9,28.0,89,29.96,8.0,NE,3.5,-,N/A,,Clear,50,2012-12-19 09:53:00
4:53 AM,30.9,28.0,89,29.98,7.0,Calm,Calm,-,N/A,,Clear,0,2012-12-19 10:53:00
5:53 AM,32.0,28.9,88,29.99,9.0,Calm,Calm,-,N/A,,Clear,0,2012-12-19 11:53:00
6:53 AM,32.0,28.9,88,30.00,8.0,Calm,Calm,-,N/A,,Clear,0,2012-12-19 12:53:00
8:53 AM,35.1,30.9,85,30.01,5.0,ESE,5.8,-,N/A,,Clear,110,2012-12-19 14:53:00
10:53 AM,41.0,33.1,73,30.00,9.0,East,10.4,-,N/A,,Clear,90,2012-12-19 16:53:00
11:53 AM,42.1,34.0,73,29.97,7.0,ENE,11.5,-,N/A,,Clear,70,2012-12-19 17:53:00
12:53 PM,43.0,35.1,74,29.92,9.0,East,10.4,-,N/A,,Overcast,90,2012-12-19 18:53:00
1:53 PM,43.0,35.1,74,29.88,8.0,East,11.5,-,N/A,,Overcast,80,2012-12-19 19:53:00
2:37 PM,44.6,35.6,71,29.86,8.0,East,10.4,-,N/A,,Overcast,90,2012-12-19 20:37:00
2:53 PM,44.1,35.1,71,29.86,9.0,East,13.8,-,N/A,,Overcast,100,2012-12-19 20:53:00
3:53 PM,44.1,36.0,73,29.86,9.0,East,10.4,-,N/A,,Overcast,100,2012-12-19 21:53:00
4:53 PM,44.1,37.0,76,29.83,10.0,ESE,10.4,-,N/A,,Overcast,120,2012-12-19 22:53:00
5:53 PM,45.0,37.9,76,29.81,10.0,East,6.9,-,N/A,,Overcast,90,2012-12-19 23:53:00
6:53 PM,46.0,39.0,76,29.78,10.0,ESE,10.4,-,N/A,,Overcast,110,2012-12-20 00:53:00
7:53 PM,48.0,41.0,77,29.75,10.0,ESE,8.1,-,N/A,,Overcast,120,2012-12-20 01:53:00
8:45 PM,48.2,41.0,76,29.70,10.0,ESE,6.9,-,0.00,Rain,Light Rain,120,2012-12-20 02:45:00
8:53 PM,48.9,42.1,77,29.70,10.0,SE,8.1,-,0.00,Rain,Light Rain,130,2012-12-20 02:53:00
9:53 PM,48.0,44.1,86,29.66,10.0,SE,9.2,-,0.04,Rain,Light Rain,140,2012-12-20 03:53:00
10:53 PM,51.1,46.0,83,29.60,10.0,SSE,8.1,-,0.00,,Overcast,150,2012-12-20 04:53:00
11:06 PM,51.8,46.4,82,29.58,10.0,SE,11.5,-,N/A,Thunderstorm,Thunderstorm,140,2012-12-20 05:06:00
11:21 PM,51.8,46.4,82,29.57,10.0,SSE,10.4,-,N/A,,Overcast,150,2012-12-20 05:21:00
11:53 PM,53.1,46.0,77,29.55,10.0,SSE,9.2,19.6,N/A,Thunderstorm,Thunderstorm,160,2012-12-20 05:53:00